Dewpoint
34 35 53 58 59 61 66 69 70 72 71 72 72 72 72 72 73 72 71 71 73 73 71 72 72 72 72 72 72 72 71 71 71 70 71 71 70 70 70 71 70 67 69
33 33 50 56 58 59 62 66 68 69 70 71 72 72 72 72 72 71 71 71 72 72 71 71 72 72 72 71 71 71 70 69 70 69 68 69 69 69 69 70 70 67 69
29 30 39 54 57 57 59 63 65 67 68 70 71 72 72 73 72 71 72 70 72 72 71 72 72 72 71 71 69 69 69 69 70 68 67 64 65 68 67 68 69 68 68
27 29 37 52 55 56 56 59 62 65 67 68 70 71 72 72 72 72 72 71 72 72 72 72 71 71 71 70 69 68 68 67 68 67 61 61 62 65 65 65 66 67 66
28 30 36 50 54 55 56 57 60 63 65 66 68 70 72 72 72 72 72 72 72 72 71 71 71 70 70 70 68 67 65 66 66 63 60 61 61 63 64 64 64 64 64
28 31 39 49 51 54 55 55 57 61 64 64 65 67 69 72 73 72 73 72 71 72 71 71 70 70 70 69 67 65 64 65 64 58 60 62 59 64 63 64 63 63 62
29 35 38 47 49 51 53 54 56 58 62 64 63 64 66 70 72 73 73 72 71 72 71 70 69 69 68 68 66 65 64 63 59 58 60 60 59 63 64 62 62 63 62
31 36 40 46 49 49 50 53 54 57 59 62 61 61 63 65 72 73 71 72 71 72 71 70 69 68 67 67 65 64 64 62 57 59 61 62 64 64 63 63 63 63 63
38 41 42 44 45 50 48 51 53 55 55 59 61 59 60 62 68 72 71 72 71 72 71 70 69 68 67 66 64 64 63 62 57 59 60 62 65 64 63 63 64 63 63
40 42 41 42 45 46 47 50 52 52 53 55 58 57 57 58 60 70 69 71 71 71 70 69 69 68 67 65 64 62 61 61 56 58 59 61 64 63 63 62 63 63 63
37 39 38 40 43 45 47 48 51 52 52 53 55 56 55 55 55 59 67 69 70 70 69 69 68 67 66 65 64 62 62 55 55 58 60 64 64 63 62 61 62 62 60
33 35 36 37 40 43 43 47 50 51 51 51 53 54 54 55 54 55 60 67 69 69 68 69 68 66 63 61 60 61 57 54 56 58 60 64 63 62 60 59 62 62 61
32 34 36 34 38 42 43 46 48 50 51 51 52 53 54 54 54 56 56 68 68 65 65 65 64 62 60 58 57 57 56 54 57 57 60 64 63 62 60 59 61 59 59
29 32 34 34 35 37 42 43 44 47 49 51 52 53 54 53 53 53 54 56 67 64 63 63 62 60 58 56 56 55 53 54 57 58 60 62 63 62 59 59 59 58 58
26 29 31 32 33 33 36 41 42 44 47 49 52 53 54 53 53 54 54 55 64 64 62 62 61 58 56 55 55 53 53 53 56 58 59 61 62 61 60 59 59 59 58
23 26 28 31 32 32 34 35 38 44 45 47 51 54 53 53 53 53 53 54 54 59 62 61 59 58 56 55 54 54 53 54 56 57 59 59 61 61 60 59 58 59 58
23 25 26 28 31 31 32 33 36 43 45 47 50 51 53 52 51 52 54 53 54 56 58 60 59 58 56 55 54 54 54 54 57 57 57 56 58 60 60 59 59 57 57
21 21 25 25 29 30 29 31 34 39 44 47 46 47 49 50 53 54 53 52 54 54 55 61 58 57 55 54 53 53 54 55 56 55 55 55 54 55 59 60 59 57 57
19 21 23 25 27 28 29 31 34 37 42 45 44 46 48 49 50 49 50 51 54 54 54 60 58 56 54 54 53 53 54 54 55 54 54 54 54 54 56 59 59 58 57
18 20 21 23 25 26 29 31 33 34 36 38 43 44 45 48 50 51 52 53 54 53 53 53 58 56 54 53 52 53 54 54 54 54 53 53 54 53 55 55 55 55 57
17 18 19 23 23 26 28 28 28 30 32 36 38 41 44 45 46 48 50 49 51 52 52 53 55 56 54 53 52 49 49 49 51 53 53 53 52 53 54 54 53 53 53
15 17 18 21 23 25 27 26 29 30 32 33 38 39 40 41 43 44 47 47 49 51 52 52 53 56 54 53 51 47 48 49 50 49 51 52 52 52 52 52 52 53 53
15 16 18 21 22 24 25 27 28 28 30 32 32 35 36 38 41 42 44 46 49 50 51 52 53 53 54 53 51 49 45 44 47 48 48 51 51 52 52 52 52 53 53
15 17 19 20 22 22 24 25 24 25 26 27 30 32 33 35 38 41 44 45 47 50 51 52 53 53 57 53 51 49 48 48 45 44 47 48 49 50 51 52 52 52 52
16 18 19 20 21 22 22 23 24 24 25 27 28 28 31 34 36 38 41 43 44 45 49 52 52 53 56 54 51 48 48 49 47 45 42 47 47 50 51 51 51 51 52
19 18 19 20 21 21 21 21 23 22 23 24 25 27 29 31 33 35 37 39 41 42 44 46 52 53 53 57 54 50 48 48 47 45 44 45 46 47 49 50 50 51 51
Lifted_Index
15 14 12 8 5 2 -0 -1 -1 -1 -2 -2 -2 -3 -3 -3 -2 -2 -1 -1 -1 -1 -2 -2 -1 -0 1 1 1 2 2 2 3 3 2 1 1 1 1 1 1 1 1
15 15 12 10 7 3 1 -0 -1 -1 -1 -1 -2 -3 -3 -3 -2 -2 -1 -1 -1 -1 -2 -2 -1 0 1 2 2 3 3 3 4 4 4 3 2 2 2 2 2 2 2
16 15 13 11 9 7 4 1 -0 -1 -1 -1 -1 -2 -3 -3 -2 -2 -1 -1 -1 -1 -1 -1 -1 0 1 2 3 4 4 5 5 6 6 5 5 4 4 3 3 3 4
16 16 14 12 11 9 7 4 1 -0 -1 -1 -1 -2 -2 -3 -3 -2 -2 -1 -1 -1 -1 -1 -0 1 2 3 4 5 6 6 6 7 7 7 7 6 6 6 5 5 5
16 16 15 13 12 11 10 8 5 2 0 -0 -1 -1 -2 -2 -2 -2 -2 -1 -1 -1 -0 0 0 1 2 3 4 6 7 7 8 8 8 8 8 8 7 7 7 7 7
16 16 16 14 13 12 12 11 9 6 3 1 -0 -0 -1 -2 -2 -3 -2 -2 -1 -0 0 1 1 2 2 3 5 6 8 8 9 9 9 9 9 8 8 8 8 8 8
18 17 16 15 14 13 13 12 12 10 7 3 1 -0 -1 -1 -2 -2 -2 -2 -1 -0 0 1 2 2 3 4 5 7 8 9 9 9 9 9 9 8 8 8 8 8 8
18 18 17 16 15 14 14 14 13 12 10 7 4 1 -0 -1 -2 -2 -2 -2 -1 -0 0 1 2 3 4 4 5 7 8 9 9 9 9 9 9 8 8 8 8 8 8
18 17 17 17 16 16 15 15 14 14 13 11 7 3 1 -1 -1 -1 -1 -1 -1 -1 0 1 2 3 4 5 6 8 9 9 9 9 9 9 8 8 8 8 8 8 8
18 18 18 18 17 17 16 15 15 15 15 14 11 6 2 0 -1 -1 -1 -1 -1 -0 1 2 3 3 4 6 7 8 9 9 9 9 9 9 8 8 9 9 9 9 9
19 19 19 19 18 18 17 16 16 16 16 16 13 9 4 2 0 -1 -1 -1 -1 0 1 2 3 4 5 6 8 9 9 9 9 9 9 9 8 9 9 9 9 9 9
20 20 20 20 20 19 18 18 17 16 16 16 15 11 7 4 2 0 -1 -1 -0 1 1 2 4 5 6 7 9 9 9 9 8 9 9 8 8 9 9 10 9 9 10
21 21 21 21 21 20 20 19 18 17 17 16 16 13 10 7 5 2 0 -0 0 1 2 3 4 5 7 8 9 10 9 9 9 9 9 8 8 9 10 10 10 10 10
22 22 22 21 21 21 20 20 19 19 18 17 16 15 12 9 6 4 2 1 0 1 3 3 4 5 7 8 9 10 9 9 8 9 9 8 8 9 10 10 10 10 11
22 22 22 21 21 21 20 20 20 19 19 17 16 15 14 11 8 7 5 2 1 2 2 3 4 5 7 8 9 9 9 9 8 8 9 9 9 9 10 10 10 10 11
22 22 22 21 21 20 20 20 20 19 19 18 16 15 15 13 10 9 7 5 4 3 3 3 3 4 6 8 9 9 9 9 8 9 9 9 9 9 10 10 10 10 11
21 21 21 21 21 20 19 19 19 19 18 18 17 16 16 15 13 10 9 8 7 5 4 3 3 4 6 8 9 9 9 9 8 9 9 10 10 10 10 10 10 10 11
21 21 21 21 21 20 19 18 18 18 18 18 18 18 17 16 15 13 11 9 9 7 4 3 3 4 5 7 8 9 9 9 8 9 10 10 10 11 10 10 10 11 11
21 21 21 21 21 20 19 18 18 18 18 18 19 19 18 17 16 15 12 10 9 8 5 3 3 3 4 5 8 9 9 9 9 9 10 10 11 11 11 11 11 11 11
22 22 22 22 21 20 19 18 18 18 18 18 19 19 18 17 17 16 14 11 10 8 6 4 3 3 3 5 7 9 9 9 9 9 10 11 11 11 11 11 11 11 12
22 23 23 22 22 21 20 19 18 17 18 19 19 19 19 18 18 17 15 13 11 10 8 6 4 3 3 4 6 8 9 10 10 10 10 11 11 12 12 12 12 12 12
22 23 23 23 23 22 21 20 19 18 18 19 19 19 20 20 19 18 16 14 12 11 9 7 6 4 4 4 5 6 7 9 10 10 11 11 11 12 12 12 12 12 12
23 23 24 24 24 23 22 21 20 19 18 18 19 20 20 21 20 20 18 16 13 11 10 8 7 6 5 4 3 4 5 7 10 11 11 11 11 12 12 12 12 12 12
23 23 24 24 24 24 23 22 21 20 19 19 19 20 20 21 21 20 19 17 14 12 11 9 8 7 6 5 3 3 3 5 7 9 11 11 12 12 12 12 12 12 12
22 23 24 24 24 24 24 23 22 20 20 19 19 20 20 21 21 21 20 18 16 14 12 11 9 8 7 5 4 2 2 3 4 6 8 11 12 12 12 12 12 12 12
22 23 23 24 24 25 25 24 22 21 21 20 20 20 20 21 21 21 21 19 17 15 13 11 10 8 7 6 4 2 2 2 3 4 6 9 12 12 12 12 12 12 13